Theta_e
333 333 333 333 340 336 332 333 331 328 325 320 317 315 313 312 311 311 310 309 308 306 304 302 299 298 299 299 299 298 298 298 299 299 299 299 299 299 298 298 298 299 300
339 341 337 335 333 331 328 327 326 322 321 316 313 313 312 311 310 309 308 307 306 304 300 298 298 299 299 298 297 297 296 296 296 298 298 298 297 297 297 297 297 297 297
340 337 333 331 329 324 322 321 321 320 316 313 313 313 311 310 309 308 307 305 302 299 298 298 298 297 297 297 297 296 295 295 295 295 295 295 297 296 295 296 296 296 297
335 332 328 325 322 318 317 316 316 314 312 311 311 309 308 308 307 306 304 301 299 297 297 297 297 297 296 297 296 295 294 293 293 293 295 295 295 295 294 294 294 295 296
325 322 320 318 314 314 311 314 313 313 311 312 308 305 306 306 304 302 302 300 298 297 296 297 296 296 295 296 295 295 294 293 293 294 294 294 293 293 292 292 292 293 296
318 313 311 310 307 306 309 311 311 308 308 307 304 305 306 304 302 302 301 299 297 296 296 296 295 293 293 294 294 294 293 293 293 294 293 292 292 292 291 291 291 293 294
313 310 308 306 303 305 305 305 301 302 303 304 304 305 304 304 303 302 301 298 296 296 296 296 294 292 291 292 294 294 293 292 292 293 292 292 291 291 290 291 291 292 292
311 309 308 310 307 310 306 302 302 302 301 301 302 303 303 303 304 302 299 296 297 296 296 295 294 294 291 290 293 293 293 292 291 292 291 291 290 290 290 291 291 291 291
313 310 306 302 300 300 300 297 298 298 298 298 299 300 301 302 303 299 297 296 297 296 295 294 294 293 289 289 293 291 291 291 293 293 293 292 292 292 291 290 290 290 292
311 307 303 303 300 298 296 294 294 295 295 296 297 300 302 300 298 299 297 297 297 296 295 292 290 289 288 291 291 290 290 291 291 291 292 293 292 292 292 291 290 290 290
307 304 301 300 299 295 294 293 293 294 294 295 296 297 299 298 296 297 296 295 294 293 291 290 289 287 289 292 292 290 289 291 290 290 290 290 290 291 291 291 291 291 290
305 303 301 298 297 295 294 293 293 294 293 293 293 294 296 296 295 294 293 293 292 291 289 287 286 288 288 289 291 292 292 290 288 289 289 289 289 290 291 291 292 292 292
305 303 301 299 297 295 293 292 293 293 292 291 292 294 294 294 293 292 292 291 290 289 287 286 287 288 288 289 289 290 291 288 287 288 288 288 289 290 290 291 292 292 294
303 301 300 299 296 294 292 292 292 292 292 292 293 293 293 292 292 291 290 289 287 286 286 286 286 287 288 288 289 288 288 287 286 287 287 288 289 289 290 291 291 292 292
300 299 299 298 297 295 293 293 293 293 294 293 293 293 293 291 291 290 289 287 286 286 286 286 286 286 286 287 287 287 287 287 286 285 286 287 288 289 289 290 291 291 292
298 298 298 297 296 295 292 291 292 292 293 293 293 293 292 291 290 289 287 286 285 285 285 284 284 284 284 284 284 286 286 286 285 285 285 285 287 288 288 290 290 291 291
297 297 297 297 297 293 290 290 290 291 293 293 293 292 291 290 290 289 286 285 285 285 284 283 283 283 283 284 285 284 284 285 285 285 285 285 286 288 289 290 290 290 291
297 296 296 296 296 291 291 291 292 292 291 291 292 291 290 290 289 288 286 285 284 284 283 282 282 283 283 283 285 284 285 285 285 285 285 285 286 288 289 289 289 289 290
295 295 296 295 293 291 291 292 292 291 291 290 290 290 290 289 288 288 287 285 283 282 282 282 282 282 282 283 285 285 284 285 285 285 286 285 286 288 289 289 289 289 289
296 295 294 293 291 291 291 292 292 291 291 290 290 289 289 289 288 287 286 285 283 282 282 282 282 282 282 283 285 285 285 285 285 286 286 286 286 287 288 289 289 289 289
293 293 292 290 290 291 291 292 292 292 291 291 290 290 290 289 287 287 286 285 283 282 282 281 282 281 281 282 283 284 285 285 285 286 286 287 286 287 288 289 289 289 289
292 290 290 290 291 292 292 292 292 292 291 291 290 289 289 288 288 287 286 285 283 282 282 281 281 281 281 282 283 284 285 284 285 286 286 286 286 287 288 289 289 289 289
290 290 291 291 292 293 292 292 292 292 291 291 290 289 289 288 287 287 286 285 283 282 281 281 281 281 281 283 283 284 285 285 285 286 286 287 286 286 287 288 288 288 288
292 293 292 293 294 293 292 292 292 291 291 290 290 289 289 288 287 287 286 285 283 281 281 281 281 281 281 282 284 284 285 285 286 286 287 286 286 286 286 287 288 288 288
293 293 294 295 293 292 292 292 291 291 290 290 290 289 289 288 287 286 286 285 283 282 281 281 281 281 281 281 283 284 285 285 285 286 286 286 286 286 286 287 287 288 288
296 295 296 293 292 292 292 291 291 290 290 290 289 289 289 288 287 286 285 285 283 282 281 281 281 281 281 281 281 284 284 284 285 285 286 286 286 285 285 286 286 287 287
Wind_Speed
26 29 31 32 29 32 36 37 37 34 32 31 27 24 23 20 17 16 15 14 15 15 13 12 11 11 12 12 11 9 8 7 6 11 15 20 20 22 23 23 21 22 23
28 27 30 40 36 35 36 39 39 38 32 29 28 25 22 18 16 15 17 16 15 16 13 13 14 14 13 12 13 13 12 11 7 14 18 16 17 18 26 21 23 20 22
24 26 24 32 36 35 39 42 39 36 32 29 26 25 22 19 17 17 18 17 18 17 14 17 17 16 15 16 14 15 16 14 10 10 11 13 17 19 27 20 23 25 21
23 26 23 28 32 41 42 42 40 38 34 29 25 22 22 21 19 19 19 21 19 16 16 18 17 16 17 17 15 18 18 16 14 11 12 16 16 20 17 23 31 24 27
33 28 25 26 22 47 42 44 42 37 32 28 25 25 22 21 20 21 21 19 16 16 15 15 15 15 16 16 17 17 18 15 13 14 14 18 17 22 19 19 21 26 26
35 33 35 36 26 36 48 45 39 36 33 27 24 26 25 21 20 20 20 17 16 16 15 14 14 18 20 19 19 17 14 15 15 14 13 16 18 19 19 18 18 15 6
35 36 40 40 34 40 41 36 32 35 30 31 26 25 25 23 19 19 17 16 16 15 14 12 14 18 21 22 20 16 14 13 10 12 14 15 18 21 22 22 19 16 13
36 38 39 47 44 44 38 34 32 33 30 31 28 25 24 21 18 18 16 15 16 17 13 11 13 17 22 22 22 19 17 18 15 12 12 14 15 20 18 21 23 23 22
30 27 42 34 38 42 42 34 34 34 31 28 25 23 22 21 20 18 15 15 15 15 11 13 13 16 20 20 22 21 17 18 18 17 14 14 14 14 14 18 16 17 10
31 33 34 40 41 41 39 35 33 32 32 28 26 25 26 29 20 13 14 14 15 11 11 12 15 16 17 18 23 22 21 23 23 23 23 23 22 21 18 17 18 14 12
37 39 39 41 42 35 37 36 36 35 34 31 31 30 26 21 19 17 16 16 13 12 13 16 15 15 19 21 24 24 21 22 19 19 23 24 24 23 24 24 20 17 16
39 43 40 38 35 37 39 37 35 36 34 32 31 27 25 24 21 19 16 14 11 13 16 13 13 16 19 23 27 27 28 25 21 21 24 23 26 27 29 28 25 22 19
40 38 36 34 33 38 37 36 35 33 32 28 28 29 26 24 21 18 16 13 11 14 13 13 15 18 21 26 29 29 30 28 26 25 23 23 25 26 27 28 26 26 22
37 34 35 37 35 33 32 32 33 32 30 30 29 29 26 22 19 15 14 12 14 16 16 18 18 21 25 28 29 29 29 28 25 23 22 24 25 26 25 28 26 31 26
33 32 33 34 32 32 31 30 32 30 30 30 29 28 26 22 18 15 13 15 16 16 18 20 25 26 28 27 26 28 31 30 27 24 24 25 25 27 27 27 26 24 19
32 31 30 32 34 35 33 30 26 27 25 25 25 26 25 22 18 17 17 17 16 17 21 23 22 22 21 21 22 26 27 28 25 24 23 24 24 26 28 27 26 23 21
31 32 32 32 32 32 31 31 29 26 26 24 24 23 22 21 19 18 17 18 19 23 28 22 19 19 18 19 22 22 22 24 24 26 25 24 25 26 26 26 26 24 25
31 31 30 30 32 32 32 32 29 28 28 27 24 23 20 19 18 16 17 19 27 28 23 19 18 20 22 21 22 22 23 24 25 26 29 26 26 26 27 27 26 24 24
30 31 33 34 37 38 37 34 35 32 31 31 27 22 19 20 19 19 22 27 24 21 19 20 22 24 22 21 21 21 20 24 27 28 32 30 27 27 27 26 26 25 24
28 31 35 36 37 38 37 36 34 33 31 29 26 24 21 18 20 23 23 25 22 20 20 22 23 22 23 21 19 21 22 25 28 32 33 33 29 27 27 26 27 26 25
31 33 33 35 33 34 35 33 32 31 28 26 22 18 18 19 20 20 23 21 20 21 21 20 20 21 21 20 18 20 23 24 28 32 33 32 31 28 27 26 26 26 26
29 30 31 35 36 34 32 29 28 28 26 23 21 20 17 19 19 20 20 20 21 21 19 18 18 19 21 21 22 22 23 24 28 31 33 32 30 28 26 27 28 27 27
33 32 31 31 33 30 27 27 28 26 25 23 22 19 17 18 17 17 17 19 20 18 15 15 17 19 21 23 23 22 24 26 27 28 29 31 31 30 27 25 27 29 29
37 35 34 28 24 27 27 29 27 24 23 22 19 18 17 17 16 15 16 18 16 14 13 15 17 19 21 23 24 23 24 25 25 25 27 29 30 30 28 26 26 28 28
32 32 29 24 27 27 28 28 26 25 22 20 18 17 17 16 14 13 13 13 12 13 14 15 16 18 21 22 23 23 22 24 25 24 26 27 28 30 30 28 26 27 28
29 28 26 27 28 29 30 29 26 25 22 20 17 16 16 16 13 11 10 10 10 12 12 14 16 18 19 22 22 22 23 24 25 25 26 28 27 28 27 28 28 27 29
Wind_Direction
181 187 182 166 169 167 163 163 155 151 149 147 144 135 129 125 130 126 118 113 106 101 80 65 52 39 39 40 33 23 1 335 283 304 308 326 333 339 342 344 342 349 347
162 155 163 169 165 159 151 150 150 148 147 146 138 130 127 124 123 120 115 113 101 82 71 65 55 49 36 25 14 8 1 353 313 312 317 331 339 347 343 345 348 348 348
145 147 144 138 151 142 139 144 147 142 137 139 137 133 127 127 126 122 121 109 92 81 72 62 52 41 23 16 10 7 3 355 348 315 319 333 334 342 346 346 349 351 350
143 143 142 140 135 130 139 142 138 135 137 135 128 123 123 127 129 127 118 105 94 85 70 63 53 37 24 14 8 5 1 356 352 346 335 332 340 342 344 343 340 349 341
116 111 107 120 120 132 128 135 134 136 136 128 131 125 129 132 134 127 115 104 97 88 75 66 53 38 29 21 13 3 2 354 357 349 345 343 340 340 346 338 331 336 343
113 108 112 111 106 112 129 131 129 136 129 125 130 129 129 131 125 115 110 105 92 78 77 67 50 33 25 22 17 16 7 355 359 348 338 334 330 329 334 334 332 346 334
113 113 113 116 115 109 114 122 130 122 121 118 120 127 128 129 132 122 110 99 88 82 74 64 48 30 22 18 16 18 20 16 5 346 332 334 324 330 331 330 329 321 302
122 121 122 127 122 121 121 122 117 115 121 116 123 130 132 134 134 126 113 102 86 76 69 55 37 20 15 11 8 16 17 17 11 356 344 336 332 334 333 325 318 312 310
119 121 126 124 117 119 121 122 122 122 117 115 120 124 129 128 135 122 110 90 86 77 64 45 30 19 9 9 14 13 10 12 14 16 6 6 1 357 348 335 330 327 323
125 125 123 119 117 115 120 121 119 117 115 119 121 118 120 116 117 110 94 93 82 78 67 46 34 24 17 19 22 17 9 3 359 357 8 13 8 3 1 350 339 311 310
116 114 113 117 116 118 121 124 125 123 120 118 112 106 113 116 106 96 87 80 86 81 60 43 32 25 26 30 31 26 17 10 358 357 359 359 354 356 355 351 345 324 299
111 112 116 118 121 124 127 128 127 125 119 111 109 107 104 103 99 92 86 80 83 75 59 46 38 36 39 38 34 28 24 21 12 8 4 351 348 346 349 351 349 348 337
110 115 120 123 124 128 128 128 125 123 118 113 108 105 104 105 101 91 85 82 75 73 67 61 52 47 44 41 36 28 26 22 14 8 353 345 343 342 347 347 349 351 360
117 120 124 121 123 125 123 127 129 126 119 112 110 111 113 109 99 91 87 87 80 75 67 61 56 53 48 42 34 28 28 22 16 359 341 345 346 348 352 353 348 352 351
120 121 121 123 126 122 118 122 123 120 121 123 122 122 119 108 99 92 84 71 68 70 67 58 47 39 36 32 27 26 25 20 12 1 355 350 348 354 351 353 354 352 349
121 124 128 128 127 120 116 114 115 115 117 119 123 119 112 110 105 86 77 74 72 66 60 50 42 38 32 23 18 20 18 14 6 3 2 357 350 354 350 354 358 355 347
126 130 133 131 127 123 120 118 112 115 117 116 121 118 111 110 91 83 82 79 71 63 57 48 41 35 30 25 21 19 9 6 5 10 6 356 354 358 358 357 358 357 351
130 131 129 131 129 128 127 125 122 121 117 118 118 114 108 95 89 91 85 75 62 57 53 46 40 34 29 24 22 17 11 8 9 11 11 3 1 360 0 360 358 354 349
133 134 136 137 138 139 136 130 126 124 120 118 121 116 108 103 99 86 76 72 65 59 51 46 40 35 28 26 23 17 14 11 13 15 15 8 3 4 3 1 359 357 357
140 143 142 141 141 139 137 133 133 130 129 127 125 123 121 115 93 80 71 68 65 60 52 44 39 34 29 28 22 18 19 16 14 20 19 14 7 7 4 2 3 359 358
142 144 144 140 139 141 140 138 136 136 136 131 129 126 116 105 96 85 76 68 63 56 50 43 36 34 29 24 20 21 21 18 18 22 21 19 13 7 8 9 8 7 5
144 141 143 142 145 144 140 140 142 140 135 132 133 125 119 107 96 85 74 67 61 55 48 42 37 35 31 26 24 25 22 18 20 24 23 23 18 12 11 12 13 12 12
144 141 141 141 141 140 144 146 144 141 140 140 135 129 123 111 98 87 75 65 60 55 49 43 41 39 37 35 33 31 26 23 24 26 26 26 23 19 13 12 14 14 13
149 148 145 144 146 146 145 146 141 142 139 135 141 139 130 120 108 94 75 64 60 58 52 46 43 39 38 38 37 37 33 31 30 31 32 32 30 25 20 17 18 19 17
156 155 153 151 148 150 147 146 146 142 140 138 142 140 136 131 117 98 80 67 59 54 50 46 44 43 41 41 40 39 37 36 34 34 35 36 35 34 28 24 23 22 24
168 166 157 154 154 153 150 152 150 146 140 136 138 144 142 138 128 107 85 66 55 50 47 47 46 44 42 42 40 38 38 37 35 35 38 37 37 35 32 28 27 26 26